Voltar ao catálogo

LUR-1

AtivoCiênciaSSO
NORAD 60506·PAYLOAD·🇪🇸 Spain

Lançado Aug 16, 2024 de Vandenberg Space Force Base

Loading…

Próximas Passagens (próximas 24 horas)

TLE

AtualizadoSource: Space-Track

Época: Sep 13, 2026, 22:58 UTC

1 60506U 24149AQ  26256.95746429  .00005876  00000-0  19806-3 0  9997
2 60506  97.3677 335.1745 0003929  13.7051 346.4296 15.31111989115556

Acompanhe LUR-1 em tempo real com AllMySat

Download on the App Store